Presure
175 191 172 209 181 186 190 168 192 199 181 195 170 192 172 163 187 199 175 191 202 199 198 209 209 235 261 291 281 290 281 288 300 280 262 253 244 237 250 240 242 241 242 244 245 256 222 274 229 200 228 198 198 199
198 171 183 192 180 178 192 179 196 180 183 153 180 195 193 188 180 191 202 201 202 192 210 211 237 261 294 295 286 282 279 286 292 279 275 258 247 253 246 251 235 239 246 244 247 250 227 261 260 226 178 221 200 198
192 187 186 203 181 204 198 189 190 190 175 172 194 186 190 197 199 199 201 198 206 211 249 253 254 296 313 310 283 278 270 283 295 282 274 269 258 245 256 253 245 230 239 245 230 236 248 232 274 255 224 229 215 192
179 184 197 170 202 194 212 190 191 192 190 187 188 187 206 199 185 205 204 191 208 239 244 232 320 327 317 310 300 285 295 301 294 286 284 264 260 262 249 253 256 247 237 234 239 241 240 254 238 271 255 218 230 207
191 178 188 190 184 189 180 197 200 177 192 186 206 191 192 193 208 213 194 214 194 282 286 305 364 339 334 329 314 308 294 295 289 291 285 273 272 265 251 246 247 246 229 235 235 241 248 232 242 236 185 254 223 229
198 193 179 190 207 188 196 191 185 201 174 201 199 199 198 216 208 194 218 250 255 295 309 106 334 313 258 296 287 285 292 295 290 286 278 271 269 274 269 259 234 245 242 236 232 236 249 241 246 239 240 277 253 223
199 192 196 189 194 183 198 197 202 199 195 201 185 187 200 208 208 220 268 287 251 346 329 332 326 317 307 258 269 288 283 286 291 274 279 281 278 285 300 155 243 251 253 243 244 242 245 252 255 238 242 235 278 254
196 195 197 200 193 188 190 197 205 196 205 202 206 203 203 190 242 266 290 293 343 336 233 158 237 310 304 307 296 297 297 292 297 289 310 311 312 311 156 189 128 130 135 258 247 248 251 256 257 229 248 243 243 278
192 201 201 204 212 191 203 199 182 207 192 188 200 214 262 199 302 292 347 356 347 335 322 290 295 150 276 271 274 274 277 279 282 273 134 279 279 269 244 219 217 251 262 243 233 256 253 253 258 254 235 245 232 241
192 197 198 200 204 198 215 220 217 202 222 226 231 248 270 285 321 326 324 314 317 322 321 266 273 281 290 291 284 278 294 323 323 319 241 109 327 317 313 172 97 214 252 275 263 257 264 265 264 253 193 231 228 240
211 212 212 220 217 210 213 226 240 249 268 276 246 290 336 332 325 316 323 323 310 279 275 278 279 322 275 229 270 204 303 350 401 388 383 371 403 373 314 170 147 322 345 297 274 261 261 251 253 264 264 255 248 241
256 290 245 272 275 259 282 211 290 288 292 296 318 335 324 310 325 322 300 278 276 279 301 317 304 285 342 380 379 382 386 114 396 381 381 369 361 360 377 382 391 405 423 277 313 342 278 264 253 262 245 258 255 243
269 271 276 252 269 257 285 279 293 284 285 324 302 322 321 308 306 285 269 272 316 313 300 286 369 371 366 357 354 349 360 226 299 323 319 327 327 341 347 350 357 376 392 402 415 283 310 344 274 261 255 247 251 251
283 282 281 283 286 307 324 285 305 335 328 324 323 316 309 276 276 282 325 309 298 376 371 360 356 341 342 350 341 324 319 301 310 301 305 311 314 316 324 335 351 356 362 363 379 406 341 277 330 300 259 250 254 237
280 295 293 282 273 302 310 322 323 320 309 309 298 274 264 294 326 300 354 390 373 361 348 342 336 327 330 311 305 307 292 291 296 290 288 297 309 261 282 327 337 340 351 380 403 413 418 298 270 315 300 254 249 249
287 301 295 297 289 312 311 311 309 300 280 275 289 307 315 293 354 457 375 352 348 335 326 335 324 310 298 291 293 284 296 293 293 302 298 302 298 305 313 322 348 380 415 452 376 352 370 385 276 284 309 288 256 246
291 279 313 309 306 303 296 284 274 282 287 301 309 286 425 437 435 366 348 340 326 310 319 318 304 291 286 266 285 286 282 274 264 270 286 286 286 305 306 316 338 341 345 373 362 367 364 398 269 256 295 288 273 256
303 304 302 291 278 270 277 290 307 311 302 284 414 423 419 420 354 339 330 313 310 307 315 299 288 283 275 279 275 272 266 262 259 290 266 282 283 281 294 297 305 304 311 338 345 339 341 300 260 242 264 275 271 262
264 268 269 280 292 296 311 302 288 323 394 399 407 408 402 345 327 318 310 302 300 293 298 283 282 271 263 273 275 257 265 264 271 273 267 273 275 276 281 285 283 280 281 279 278 274 271 251 243 255 271 268 264 260
287 285 298 301 299 286 288 393 393 381 379 384 392 379 378 324 311 301 296 293 288 301 285 277 277 278 270 261 262 266 258 263 264 261 269 271 271 276 272 272 266 262 259 257 253 251 250 243 243 266 264 263 259 258
300 289 284 403 400 390 382 373 370 367 376 381 380 373 321 311 298 293 283 285 281 290 276 271 272 272 276 271 270 262 262 261 265 257 265 265 272 272 264 264 253 250 247 246 247 249 249 244 255 259 259 259 259 259
398 393 388 383 378 371 360 357 360 355 372 371 367 341 313 303 292 283 282 284 270 279 274 261 259 255 272 263 262 262 255 255 257 266 260 259 259 260 260 264 266 251 247 245 237 238 238 239 242 245 247 244 245 248
382 373 371 369 366 356 349 349 348 354 369 363 360 321 304 299 291 282 276 280 268 268 270 271 264 262 259 273 265 269 274 266 259 250 266 260 252 257 262 262 264 263 261 236 241 249 248 239 235 236 237 237 236 238
364 358 359 357 358 355 349 347 341 340 362 363 354 317 301 295 289 277 271 271 276 264 261 260 266 263 259 265 266 256 253 259 265 269 265 259 259 264 254 265 271 270 270 268 269 271 264 267 264 265 264 264 267 254
349 349 353 351 351 351 356 359 351 341 351 361 351 318 300 296 286 276 275 265 269 271 266 262 259 261 259 259 259 244 252 247 250 249 251 274 260 259 256 234 256 252 246 257 238 248 256 266 242 239 243 240 253 258
328 324 320 323 322 324 331 340 350 356 346 358 358 325 307 298 288 280 277 270 267 266 262 262 264 265 259 266 271 269 271 269 270 270 252 251 258 257 254 250 249 247 250 259 251 251 248 246 263 260 260 265 262 259
310 316 313 314 318 319 320 323 328 344 357 352 359 358 313 304 297 290 285 278 274 271 266 265 262 258 262 261 257 255 253 256 264 265 265 260 255 254 256 259 259 257 258 257 250 254 260 264 260 258 258 263 262 264
306 303 301 311 314 312 314 309 316 323 329 350 358 359 360 320 302 299 291 286 286 280 276 269 265 263 260 260 263 263 263 264 263 262 263 262 262 261 264 270 274 274 276 265 265 276 277 287 287 279 279 288 293 299
304 306 306 307 310 303 299 294 291 290 297 312 332 355 361 363 346 310 299 294 290 286 284 278 278 279 278 272 268 265 264 263 263 269 268 264 263 266 265 264 269 270 275 280 284 282 294 301 294 302 296 313 319 332
315 316 315 316 312 312 313 306 300 290 286 284 284 293 328 351 363 363 341 317 304 298 291 287 287 285 281 279 277 277 278 278 277 276 276 278 279 278 276 281 278 280 287 293 299 303 300 313 321 371 387 387 386 367
356 359 353 351 355 353 351 364 361 365 367 354 301 291 285 286 302 347 358 362 354 337 320 308 300 296 291 289 287 287 286 287 283 283 283 286 288 294 299 297 300 297 303 317 346 376 375 361 350 351 361 350 359 391
343 338 337 336 334 334 336 336 337 343 344 348 359 379 404 419 301 288 289 343 357 355 362 359 347 334 323 316 312 308 307 306 304 302 303 302 303 314 323 336 359 384 370 359 349 345 336 328 319 323 355 354 349 346
328 327 322 321 321 321 322 324 327 328 331 334 340 347 360 367 390 393 417 425 326 308 326 343 355 354 359 360 362 363 358 358 362 362 363 365 358 358 342 350 343 333 323 317 310 301 298 344 341 337 334 334 331 327
Wind_Speed
71 104 63 113 83 96 92 58 105 111 76 115 66 105 81 76 96 119 91 90 124 122 99 133 118 105 107 79 78 66 62 63 57 55 50 48 44 46 47 46 47 46 40 39 33 32 37 38 36 33 34 29 28 25
116 65 79 104 71 66 100 70 116 74 82 63 70 115 110 95 76 94 120 124 119 101 134 120 113 111 90 78 73 66 60 62 60 60 59 52 45 43 46 47 49 47 46 42 40 38 39 36 34 40 32 37 32 30
107 95 86 121 74 123 105 97 107 102 58 64 118 88 106 121 120 116 120 107 140 133 117 109 108 94 69 70 71 63 61 67 61 63 61 60 54 48 47 49 52 47 47 46 40 44 41 36 37 36 43 39 37 32
106 84 123 64 122 101 127 100 106 106 102 98 103 99 138 118 82 132 122 96 135 129 118 96 84 71 69 69 69 68 69 67 64 67 64 59 58 58 51 51 52 55 51 46 47 48 45 42 36 37 41 42 42 39
116 72 92 101 81 105 77 125 133 65 114 95 144 103 102 100 136 144 96 145 80 118 112 90 60 60 57 55 59 61 60 64 66 67 66 63 63 63 58 52 46 56 54 52 50 54 51 45 42 41 38 42 48 47
129 120 79 116 137 106 133 112 81 138 67 132 114 128 124 149 139 95 142 125 124 113 95 7 52 54 41 58 60 65 66 65 65 65 64 64 66 69 63 56 52 60 61 62 57 57 55 55 54 48 46 43 48 51
131 114 132 121 132 93 138 125 141 127 119 126 80 95 130 133 127 149 120 123 116 68 69 60 56 55 58 62 63 69 71 70 68 66 64 69 70 73 68 30 63 63 68 68 66 61 56 58 58 51 50 47 47 52
131 129 131 138 125 106 105 126 143 116 140 136 140 134 125 99 139 119 114 106 72 69 47 23 46 57 61 63 69 71 73 76 75 70 74 78 79 77 27 26 21 23 17 72 72 69 65 64 60 52 57 56 54 48
123 140 139 142 147 110 137 125 80 146 102 90 127 151 128 79 98 102 71 64 65 65 63 53 61 31 60 63 66 68 73 75 74 71 29 76 71 63 61 52 64 74 74 70 65 74 72 66 65 61 58 59 55 54
116 128 127 134 136 121 150 160 146 127 158 157 87 126 116 110 86 77 73 75 73 69 61 68 71 68 68 67 69 72 73 81 79 78 63 20 69 73 81 41 12 61 73 80 75 71 76 74 73 67 63 63 58 59
141 140 143 154 148 127 134 156 154 108 120 107 97 108 76 75 72 75 71 71 67 69 70 74 73 75 65 55 66 40 58 50 47 44 47 37 27 38 70 41 25 76 80 84 78 77 79 71 72 73 67 68 66 64
135 105 140 122 120 129 115 83 108 106 106 103 86 71 74 79 70 70 68 73 73 72 75 73 72 74 47 29 32 32 31 39 16 17 15 18 28 42 45 47 43 43 47 77 79 83 85 80 74 77 65 67 70 68
115 117 112 119 113 117 107 107 103 100 100 79 81 73 72 75 72 70 73 75 73 73 71 74 22 16 13 14 5 4 3 22 10 0 4 2 14 12 18 24 26 29 30 38 47 79 79 83 82 76 72 68 69 72
96 99 101 102 102 97 81 98 89 69 71 73 73 73 71 72 72 72 73 74 73 25 21 20 16 13 10 8 12 13 15 12 9 9 10 11 16 21 18 14 20 23 26 27 32 40 70 72 76 82 74 73 76 69
94 93 92 89 88 84 80 73 73 73 77 75 71 70 74 75 75 72 51 31 28 26 23 16 12 11 17 18 17 17 13 15 13 14 12 11 17 18 20 17 22 24 30 35 32 24 35 77 65 67 78 75 71 72
85 82 81 81 81 74 76 77 76 74 72 74 75 73 73 72 53 23 35 31 27 25 23 17 19 23 24 18 18 12 10 7 3 11 8 12 11 13 14 13 12 5 8 10 31 34 31 42 67 62 64 74 73 70
80 80 71 74 76 77 76 74 74 75 76 76 74 71 28 21 22 40 35 34 32 27 19 26 30 27 21 16 18 16 15 9 14 13 8 9 7 9 6 7 12 14 13 13 23 23 27 38 62 59 56 62 67 71
73 73 74 73 73 74 76 78 76 76 76 71 26 22 20 19 42 39 39 36 31 27 24 31 27 25 21 24 20 16 12 9 11 7 0 9 5 5 11 16 18 20 19 21 25 26 30 49 53 52 50 53 60 65
73 73 74 76 78 77 76 77 75 58 28 26 21 19 20 46 42 40 37 34 31 24 28 28 31 28 24 24 22 18 14 11 13 7 6 5 6 8 11 16 20 23 26 31 34 39 44 52 55 53 52 56 60 63
77 77 76 76 76 75 76 26 25 25 26 23 19 22 32 49 44 41 36 35 29 28 34 34 36 37 34 29 27 22 19 17 15 12 12 12 12 12 15 19 26 30 32 34 38 41 44 47 48 43 47 52 56 60
75 75 75 24 22 23 24 24 23 23 23 21 21 27 54 50 47 43 39 35 31 36 36 35 36 33 35 34 31 28 27 22 20 18 15 10 10 14 21 25 34 34 34 36 39 42 43 46 44 45 48 52 55 58
24 23 22 23 22 22 23 22 21 21 22 22 26 50 55 53 50 47 42 39 36 36 40 36 33 29 33 31 31 30 27 24 20 22 23 19 19 19 20 21 26 36 40 42 42 43 45 46 48 50 53 55 57 60
22 22 21 21 21 22 22 21 22 21 22 24 30 58 58 57 56 49 46 44 41 38 38 43 42 37 35 36 31 30 29 31 25 21 25 24 16 20 24 25 27 30 35 42 44 49 51 50 51 53 55 57 58 62
21 21 20 20 22 23 23 23 23 22 23 27 36 62 59 61 60 53 48 49 50 46 43 42 44 43 39 40 35 29 27 26 29 30 29 23 20 25 18 24 27 30 34 37 40 43 49 51 54 56 59 62 61 72
20 19 19 19 19 19 21 23 26 25 26 29 41 64 63 65 62 56 57 49 51 53 52 49 46 47 46 42 37 34 32 31 29 28 27 36 30 29 29 39 30 35 37 38 45 41 42 45 48 52 54 58 64 65
18 19 19 19 19 20 20 19 21 27 28 30 37 65 67 68 66 62 63 58 55 54 52 53 52 52 46 50 52 49 48 45 44 42 36 36 36 37 37 38 39 42 44 42 46 48 53 57 54 58 61 64 69 72
21 21 20 20 20 20 19 19 20 22 28 32 36 44 70 68 70 69 69 67 66 63 60 58 55 50 53 50 46 43 40 40 46 47 46 42 41 42 43 45 46 47 49 52 55 57 58 60 63 66 68 69 70 71
21 21 22 21 21 20 20 20 20 21 22 27 34 39 47 72 71 71 70 67 68 71 68 65 60 57 53 52 56 55 55 54 52 51 51 49 50 50 53 56 57 57 58 56 58 62 62 65 67 66 68 71 70 70
23 24 24 23 23 24 24 24 24 23 22 23 27 33 40 47 63 74 69 70 68 68 68 68 69 69 68 64 62 59 57 56 55 58 56 53 53 56 57 57 59 59 61 64 66 66 69 70 69 70 68 75 75 77
24 24 24 24 25 26 26 27 28 27 27 26 25 25 31 37 44 53 66 72 73 73 71 67 67 68 68 68 68 67 67 66 66 66 67 68 68 65 63 67 63 64 67 69 69 69 67 72 72 65 56 53 51 49
14 12 13 12 10 11 10 7 9 9 11 16 31 31 30 30 31 40 46 52 61 70 74 75 74 73 72 72 71 72 71 71 70 70 70 71 73 72 72 70 71 67 70 74 72 58 51 51 50 47 43 42 37 28
14 12 11 10 10 9 8 7 8 7 8 10 9 5 4 3 35 34 34 41 44 49 53 59 66 73 74 73 73 72 72 71 71 71 72 72 72 75 74 72 63 46 46 45 45 43 42 40 39 38 31 28 26 24
14 14 14 14 14 12 11 10 9 8 8 7 7 7 4 5 1 2 3 5 31 39 42 45 47 49 50 52 53 54 55 55 53 52 50 47 47 44 46 41 40 39 38 37 36 35 35 30 29 27 24 23 21 20
Wind_Direction
273 285 271 285 284 292 297 276 301 300 304 307 296 309 305 283 309 313 308 316 319 321 315 319 321 314 309 296 299 287 288 291 281 269 261 257 254 258 267 265 269 272 275 273 271 273 262 264 249 258 260 265 273 278
281 268 285 287 289 290 296 296 296 301 302 296 301 308 308 310 301 313 315 317 316 316 315 316 313 308 303 289 285 288 285 285 277 270 264 262 259 259 260 262 264 266 271 272 274 272 256 265 256 249 258 254 261 268
282 283 287 285 286 290 294 298 299 300 291 287 306 305 308 308 310 310 313 314 317 315 308 308 307 305 285 279 283 281 281 279 276 269 266 264 262 257 260 257 257 264 263 268 264 266 267 253 258 250 248 250 250 261
277 277 284 271 286 292 288 295 292 298 294 302 304 301 304 307 302 308 312 306 311 309 309 303 297 284 281 278 276 278 276 276 269 267 264 261 261 259 255 254 252 257 263 262 264 264 263 266 252 253 248 245 247 245
279 275 279 288 284 293 293 295 295 284 301 304 298 304 305 305 305 308 305 309 295 302 303 301 283 284 284 281 277 275 272 269 266 266 265 262 259 255 255 256 255 253 259 260 258 260 261 254 253 248 254 243 242 242
276 280 281 287 282 288 290 293 295 293 285 299 298 303 306 302 305 301 306 301 303 303 301 176 284 281 282 280 276 274 270 267 266 264 263 263 261 259 254 255 262 257 256 256 254 254 257 255 256 249 249 246 244 243
276 278 280 282 283 286 286 289 289 290 296 298 292 293 302 303 303 303 296 296 301 288 292 289 284 279 275 277 276 272 273 272 269 265 265 262 261 262 261 258 257 254 253 255 255 255 253 253 251 250 251 246 244 245
276 278 279 280 282 287 285 289 288 290 293 298 299 298 300 292 300 296 296 297 283 284 278 256 289 281 277 274 271 270 269 270 271 269 268 268 266 264 284 252 33 359 357 247 251 253 253 249 245 243 247 250 250 244
276 275 276 277 278 283 283 287 286 288 293 293 294 295 292 290 294 296 287 283 283 288 291 290 284 237 278 277 277 276 275 274 271 272 250 268 268 270 261 250 249 249 247 249 248 246 250 252 250 244 247 246 245 247
276 276 278 279 280 283 282 282 285 289 287 288 285 291 292 292 294 293 290 292 292 289 291 285 282 283 284 281 279 277 277 276 276 274 269 263 268 264 257 271 262 253 250 248 250 250 246 245 246 243 251 243 246 248
272 275 276 276 278 281 283 282 283 283 287 288 288 290 287 287 289 290 289 289 291 290 287 284 286 286 283 282 278 270 273 267 275 279 281 284 280 258 258 254 282 249 245 245 245 244 246 246 248 244 241 240 243 247
271 269 273 273 275 278 279 278 282 285 288 289 289 286 287 290 287 288 289 287 287 287 287 288 289 288 278 265 265 269 274 245 285 265 249 232 230 242 244 250 253 251 247 242 239 238 239 239 241 243 243 241 239 244
268 270 272 273 276 279 279 282 286 286 287 286 287 286 285 289 290 287 286 286 288 289 289 287 239 233 229 253 266 264 186 249 231 304 251 241 265 277 271 271 267 268 254 248 243 235 233 231 234 236 238 241 242 241
271 272 273 275 277 282 281 282 285 281 283 284 285 286 288 285 285 287 289 288 288 225 210 206 199 214 208 192 156 146 146 224 153 223 236 259 277 272 283 287 268 269 264 256 252 246 228 229 225 228 231 236 238 243
273 276 277 278 279 281 281 280 281 282 283 285 288 285 284 288 289 289 279 195 201 198 202 203 213 202 162 158 162 159 220 228 231 247 258 291 319 296 304 316 311 293 272 259 243 238 225 221 223 219 222 229 234 238
274 276 278 279 280 277 278 280 282 284 284 284 287 288 289 288 283 244 192 212 197 193 198 176 166 161 165 186 177 211 162 144 89 79 49 17 353 344 327 305 300 257 127 180 170 197 191 196 216 219 219 222 231 236
274 276 274 274 275 278 280 282 282 284 285 288 289 289 273 247 236 187 194 187 186 212 186 161 164 170 184 236 192 171 175 200 254 289 54 44 10 13 22 63 62 77 104 163 167 171 179 186 209 218 217 221 226 232
271 273 274 276 277 278 281 284 285 285 286 288 267 260 250 224 185 187 186 194 196 198 173 172 182 184 195 183 194 192 220 233 268 98 304 75 68 92 94 93 94 101 106 119 132 148 165 188 207 217 221 222 226 231
272 274 275 279 281 281 282 283 284 282 262 263 260 240 224 185 190 189 189 194 197 191 177 186 184 196 209 194 194 220 199 207 228 155 158 131 127 133 120 123 130 137 143 150 157 167 181 198 210 215 217 221 225 231
275 277 278 279 279 280 282 257 257 255 257 253 242 225 197 187 190 192 194 198 197 190 176 188 194 197 199 213 214 209 214 198 196 197 175 173 178 153 162 163 165 168 173 181 191 196 203 212 219 218 223 226 231 236
274 276 277 258 252 251 250 251 249 250 251 242 226 208 187 189 193 193 201 201 201 187 189 200 204 206 201 205 205 208 211 209 195 206 193 191 177 182 189 187 191 195 201 206 208 210 214 221 221 225 230 234 239 244
252 250 251 249 245 242 245 246 244 244 243 229 214 190 191 191 195 201 200 196 206 195 197 216 226 231 218 225 224 218 224 227 222 207 212 207 200 202 203 206 206 210 211 216 222 224 228 232 234 235 238 242 245 248
242 243 244 244 239 239 240 242 241 238 237 222 209 191 195 194 195 202 202 200 207 212 209 210 223 229 233 226 233 233 226 225 228 227 223 225 227 227 222 218 215 218 222 233 233 231 233 240 244 246 248 250 253 255
239 241 242 241 240 236 236 233 234 231 234 221 207 194 197 197 197 204 207 209 206 216 220 224 221 228 234 240 234 232 236 238 241 238 236 235 241 249 238 251 239 236 237 239 240 239 242 244 246 248 251 254 255 260
238 239 241 241 240 239 240 237 231 228 227 222 208 199 201 200 202 207 207 218 217 216 220 225 229 230 236 240 240 224 232 230 235 234 242 254 253 251 246 230 248 244 238 256 235 249 258 265 242 248 251 251 262 262
234 238 237 238 235 236 236 235 233 228 225 222 216 203 204 204 206 209 210 216 222 225 229 230 230 232 236 238 243 247 251 254 257 259 235 238 249 250 246 241 242 242 245 254 246 247 245 246 258 256 256 261 258 259
240 241 240 240 239 236 235 235 235 232 226 224 222 217 208 209 209 211 213 216 219 224 230 232 233 237 240 244 246 246 244 246 253 254 254 251 248 248 251 258 259 253 253 252 250 251 259 260 257 258 260 262 265 269
241 243 244 244 242 237 235 232 234 236 235 229 226 224 220 213 215 215 216 218 220 223 227 233 237 239 241 243 244 247 251 253 255 257 258 259 261 262 265 270 271 272 273 268 269 275 275 280 277 274 276 277 279 279
245 246 246 245 243 239 236 234 232 231 231 232 231 228 227 225 221 220 222 223 225 227 229 232 234 237 241 245 247 249 251 253 256 258 259 260 262 265 265 266 270 271 274 278 280 279 283 284 282 284 284 285 285 285
250 250 250 250 248 246 244 240 238 235 234 234 234 233 230 229 230 229 228 227 229 230 232 234 237 239 243 246 249 251 252 255 257 260 262 264 267 269 271 274 275 277 279 281 282 282 283 285 286 285 284 283 283 283
219 208 216 219 208 219 226 193 212 223 236 236 236 234 234 234 233 231 232 234 235 235 235 236 239 241 244 247 249 251 253 256 260 262 265 267 269 270 272 274 276 277 280 282 284 284 283 283 282 283 284 284 284 284
197 195 193 191 195 203 205 205 207 208 225 236 241 223 60 21 236 235 235 235 236 238 240 242 243 244 246 248 250 252 254 256 259 262 264 266 269 271 274 276 280 281 280 280 281 281 282 283 284 286 286 287 285 283
198 198 200 205 208 210 215 216 221 223 227 227 233 236 225 239 46 304 338 252 240 240 240 241 244 246 248 249 251 254 255 258 261 263 265 267 269 271 272 273 275 276 278 280 282 283 284 286 287 287 285 284 280 279